STARLINK-32002, 60200

Orbit data source: Space-Track

STARLINK-32002, 60200 is a payload satellite owned by SpaceX/Seattle (US) in LEO that was launched on Wed, 03 Jul 2024 UTC via an FALCON 9 launch vehicle from the Air Force Eastern Test Range (AFETR). Payload-class satellites include a variety of spacecraft equipped with specific instruments for various scientific and technological missions. These include communications satellites like Starlink; space stations such as the ISS; scientific satellites like the Hubble; Earth observation satellites from companies like Planet Labs, Umbra, and HawkEye 360; GPS; miniature CubeSats for education and research; and military/defense satellites.

Loading next visibility...
Identifier
60200, 2024-124T
Orbit
LEO
Country
Flag of USUS
Related business
Manufacturer
SpaceX/Seattle
Mission
Operational Commercial Communications
Bus & Motor
STARLINK V2M, Unknown motor
Mass
730 kg wet, ~700 kg dry
Launch date (UTC)
2024-07-03 (1 year ago)
Launch vehicle
FALCON 9
Launch site
Air Force Eastern Test Range (AFETR)
Object type
Payload
Rocket body
Debris
Shape & HBR
Box + 2 Pan, 17.7 m
Radar Cross Section
33.884 m², Large (>1 m²)

Expand to show TLE details & history
Last TLE update: 2 days ago

TLE from 2 days ago
0 STARLINK-32002
1 60200U 24124T   25305.99059567  .00000589  00000-0  32010-4 0  9998
2 60200  53.1606 195.7001 0001271  79.7368 280.3776 15.30190268 74745
Epoch: 2025-11-01T23:46Z
TLE epoch observation values (Epoch: 2025-11-01T23:46:27.465Z)
Latitude
-0.00005°
Longitude
157.57288°
Altitude
475.987 km
Speed
7.629 km/s
True Right ascension
13h 02m 48s
True Declination
0° 00' 00"
Sunlit
Object was in daylight at epoch
Visualization orbit readout
Latitude
Unknown
Longitude
Unknown
Altitude
Unknown
Speed
Unknown
Apparent Right ascension
Unknown
Apparent Declination
Unknown
Sunlit
N/A
Visualization observer readout
Local Sidereal Time
08:16:12
Azimuth
Unknown
Elevation
Unknown
Doppler factor
Unknown
Orbital elements
Apogee altitude
476.372 km
Perigee altitude
474.629 km
Semi-major axis
6,853.637 km
Eccentricity
0.00013
Inclination
53.1606°
RAAN
195.7001°
Arg. of periapsis
79.7368°
True anomaly
280.36327°
Mean anomaly
280.3776°
Eccentric anomaly
280.37044°
Mean motion
3.82526 °/min
Orbital period
94.11 mins
BSTAR
0.00003201
Loading maneuver chart data...
Computing Atmospheric mass density...
Loading historical data...
Loading historical data...
Loading historical data...
Loading historical data...
Loading historical data...
Loading historical data...
Loading historical data...

Documentation

Showing up to 5 results
|